#timestamp,LO_Frequency,Hit,StdDev 
1564909215.5,286047002.4,N
1564909235.3,286047002.2,N
1564909255.2,286047002.3,N
1564909275.9,286047002.3,N
1564909295.7,286046999.7,N
1564909315.6,286047001.5,N
1564909335.4,286047001.6,N
1564909355.3,286047002.4,N
1564909375.1,286047002.8,N
1564909376.0,286047002.8,N
1564909395.8,286047002.7,N
1564909415.7,286047001.5,N
1564909435.5,286046999.8,N
1564909455.3,286047002.2,N
1564909475.2,286047002.5,N
1564909495.0,286047001.7,N
1564909495.9,286047001.7,N
1564909515.8,286047001.5,N
1564909535.6,286047002.4,N
1564909555.4,286047002.6,N
1564909575.3,286047004.0,N
1564909595.1,286047002.4,N
1564909615.9,286047002.2,N
1564909635.7,286047001.4,N
1564909655.5,286047001.8,N
1564909675.4,286047004.0,N
1564909695.2,286047004.4,N
1564909715.0,286047004.0,N
1564909715.9,286047004.0,Y
1564909735.8,286046999.9,P
1564909755.6,286047000.6,N
1564909805.5,286047001.2,E
1564909815.4,286047001.0,N
1564909835.2,286046999.0,P
1564909855.1,286047001.1,N
1564909856.0,286047001.1,N
1564909875.8,286047001.0,N
1564909895.7,286047000.0,N
1564909915.5,286047000.1,N
1564909935.3,286047001.0,N
1564909955.2,286047001.0,N
1564909975.0,286046998.6,N
1564909975.9,286046998.6,N
1564909995.7,286046999.0,N
1564910015.6,286046998.7,N
1564910035.4,286047000.8,N
1564910055.3,286047000.6,N
1564910075.1,286046998.5,N
1564910076.0,286046998.5,N
1564910095.8,286047000.2,N
1564910115.7,286047000.1,N
1564910135.5,286047000.2,N
1564910155.4,286047001.0,N
1564910175.2,286047001.0,N
1564910195.0,286046998.3,N
1564910195.9,286046998.3,N
1564910215.8,286047000.8,N
1564910235.6,286047000.2,N
1564910255.4,286047002.4,N
1564910275.3,286047000.4,N
1564910295.1,286047001.9,N
1564910315.9,286047002.8,N
1564910335.7,286047002.4,N
1564910355.5,286047002.3,N
1564910375.4,286047002.1,N
1564910395.2,286047000.5,N
1564910415.0,286047002.6,N
1564910435.1,286047002.7,N
1564910455.9,286047002.4,N
1564910475.7,286047001.9,N
1564910495.6,286047001.4,N
1564910515.4,286047002.6,N
1564910535.2,286046999.8,N
1564910555.1,286047000.1,N
1564910556.0,286047000.1,N
1564910575.8,286047002.5,N
1564910595.6,286047002.8,N
1564910615.5,286047002.8,N
1564910635.3,286047002.2,N
1564910655.2,286047001.6,N
1564910675.9,286047004.1,Y
1564910695.7,286047002.2,P
1564910715.6,286047001.5,P
1564910735.4,286047002.1,P
1564910755.3,286047001.6,Y
1564910775.1,286047000.1,P
1564910776.0,286047000.1,N
1564910795.8,286046999.9,N
1564910815.7,286047000.6,N
1564910835.5,286047002.7,Y
1564910855.4,286047000.6,P
1564910875.2,286046999.9,N
1564910895.0,286046999.8,N
1564910895.9,286046999.8,N
1564910915.8,286046999.8,N
1564910935.6,286046999.7,N
1564910955.4,286047002.5,Y
1564910975.3,286047002.4,P
1564910995.1,286047002.2,N
1564911015.9,286047002.3,N
1564911035.7,286047002.5,N
1564911055.5,286047001.3,N
1564911075.4,286047001.4,N
1564911095.2,286047004.1,Y
1564911115.1,286047002.2,P
1564911116.0,286047002.2,P
1564911135.8,286047000.2,N
1564911155.6,286047002.5,Y
1564911175.5,286047000.5,P
1564911195.3,286047000.7,N
1564911215.2,286047001.2,N
1564911235.9,286047001.1,N
1564911255.7,286047000.2,N
1564911275.6,286047000.7,N
1564911295.4,286047001.1,N
1564911315.2,286046999.9,N
1564911335.1,286047000.5,N
1564911336.0,286047000.5,N
1564911355.8,286047000.4,N
1564911375.7,286047000.6,N
1564911395.5,286047000.7,N
1564911415.3,286047002.4,Y
1564911435.2,286047002.4,P
1564911455.0,286047002.1,N
1564911455.9,286047002.1,N
1564911475.8,286047002.0,N
1564911495.6,286047002.5,Y
1564911515.4,286046998.2,P
1564911535.3,286046998.7,N
1564911555.1,286046998.8,N
1564911575.9,286046999.1,N
1564911595.7,286046999.2,N
1564911615.5,286046999.0,N
1564911635.4,286046996.7,Y
1564911655.2,286046999.4,P
1564911675.1,286046998.7,P
1564911676.0,286046998.7,P
1564911695.8,286046999.3,N
1564911715.6,286046999.1,Y
1564911735.5,286046998.3,P
1564911755.3,286046999.1,N
1564911775.2,286046999.4,N
1564911795.9,286046999.4,N
1564911815.7,286046998.8,Y
1564911835.6,286046998.7,P
1564911855.4,286046996.9,P
1564911875.3,286046999.2,N
1564911895.1,286046996.6,Y
1564911915.8,286046998.4,P
1564911935.7,286046999.3,P
1564911955.5,286046998.9,N
1564911975.4,286046998.8,Y
1564911995.2,286047000.8,P
1564912015.0,286047000.1,N
1564912015.9,286047000.1,N
1564912035.8,286047000.5,N
1564912055.6,286047002.7,Y
1564912075.5,286047000.2,P
1564912095.3,286047000.5,P
1564912115.1,286047000.1,N
1564912135.9,286047002.5,Y
1564912155.7,286046999.8,P
1564912175.6,286047001.9,P
1564912195.4,286047001.3,N
1564912215.2,286047001.3,N
1564912235.1,286047003.2,Y
1564912236.0,286047003.2,P
1564912255.8,286047002.7,N
1564912275.7,286047002.7,N
1564912295.5,286046999.7,N
1564912315.3,286046999.8,N
1564912335.2,286047000.3,N
1564912355.0,286046999.8,N
1564912355.9,286046999.8,N
1564912375.8,286047002.4,N
1564912395.6,286047002.6,N
1564912415.4,286047000.0,N
1564912435.3,286047000.0,N
1564912455.1,286047000.5,N
1564912475.8,286046999.7,N
1564912495.7,286047002.8,N
1564912515.5,286047000.0,N
1564912535.4,286047000.5,N
1564912555.2,286047000.1,N
1564912575.0,286047002.8,N
1564912575.9,286047002.8,N
1564912595.8,286047000.3,N
1564912615.6,286047000.0,N
1564912635.4,286046999.9,N
1564912655.3,286047000.9,N
1564912675.1,286047000.1,N
1564912695.9,286047000.4,N
1564912715.7,286047000.6,N
1564912735.5,286047000.9,N
1564912755.4,286047001.2,N
1564912775.2,286047001.2,N
1564912795.1,286047000.6,N
1564912796.0,286047000.6,N
